Location: Bernadets
(43.3537°N, 0.3167°E)
Time: 04:04:16
(UTC+00:00)

Meteor 1-4 Rocket - Pass Details

Date: 24 October 2021
Orbit: 446 x 496 km, 81.2° (Epoch: 29 November)

Event Time Altitude Azimuth Distance (km) Brightness Sun altitude
Rises 18:28:16 0° 191° (S) 2,468 6.3 -16.4°
Reaches altitude 10° 18:30:21 10° 192° (SSW) 1,592 5.3 -16.8°
Maximum altitude 18:33:49 82° 281° (W) 463 2.4 -17.4°
Drops below altitude 10° 18:37:17 10° 8° (N) 1,588 5.1 -18.1°
Sets 18:39:21 0° 10° (N) 2,462 6.1 -18.5°
